TimeEST,TemperatureF,Dew PointF,Humidity,Sea Level PressureIn,VisibilityMPH,Wind Direction,Wind SpeedMPH,Gust SpeedMPH,PrecipitationIn,Events,Conditions,WindDirDegrees,DateUTC
12:15 AM,62.6,62.6,100,29.99,10.0,SE,3.5,-,N/A,,Mostly Cloudy,140,2012-12-10 05:15:00
12:35 AM,62.6,60.8,94,29.98,8.0,Calm,Calm,-,N/A,,Mostly Cloudy,0,2012-12-10 05:35:00
12:55 AM,62.6,60.8,94,29.97,10.0,SE,8.1,-,N/A,,Mostly Cloudy,130,2012-12-10 05:55:00
1:15 AM,64.4,64.4,100,29.96,10.0,SSE,5.8,-,N/A,,Mostly Cloudy,150,2012-12-10 06:15:00
1:35 AM,64.4,64.4,100,29.95,10.0,SE,4.6,-,N/A,,Overcast,140,2012-12-10 06:35:00
1:55 AM,64.4,64.4,100,29.94,10.0,ESE,5.8,-,N/A,,Mostly Cloudy,120,2012-12-10 06:55:00
2:15 AM,64.4,64.4,100,29.94,10.0,Calm,Calm,-,N/A,,Mostly Cloudy,0,2012-12-10 07:15:00
2:35 AM,64.4,64.4,100,29.93,10.0,Calm,Calm,-,N/A,,Overcast,0,2012-12-10 07:35:00
2:55 AM,62.6,62.6,100,29.93,6.0,Calm,Calm,-,N/A,,Overcast,0,2012-12-10 07:55:00
3:15 AM,62.6,62.6,100,29.92,8.0,Calm,Calm,-,N/A,,Overcast,0,2012-12-10 08:15:00
3:55 AM,62.6,62.6,100,29.92,0.2,Calm,Calm,-,N/A,,Overcast,0,2012-12-10 08:55:00
4:15 AM,64.4,62.6,94,29.92,0.2,Calm,Calm,-,N/A,,Overcast,0,2012-12-10 09:15:00
4:35 AM,64.4,64.4,100,29.91,0.2,Calm,Calm,-,N/A,,Overcast,0,2012-12-10 09:35:00
4:55 AM,64.4,64.4,100,29.91,0.5,Calm,Calm,-,N/A,,Overcast,0,2012-12-10 09:55:00
5:15 AM,64.4,64.4,100,29.91,0.2,Calm,Calm,-,N/A,,Overcast,0,2012-12-10 10:15:00
5:35 AM,64.4,64.4,100,29.91,0.2,Calm,Calm,-,N/A,,Overcast,0,2012-12-10 10:35:00
5:55 AM,64.4,62.6,94,29.90,0.5,SW,3.5,-,N/A,,Overcast,220,2012-12-10 10:55:00
6:30 AM,64.4,62.6,94,29.91,1.5,WSW,9.2,-,N/A,,Mostly Cloudy,240,2012-12-10 11:30:00
6:50 AM,64.4,64.4,100,29.91,4.0,West,9.2,-,N/A,,Mostly Cloudy,260,2012-12-10 11:50:00
7:50 AM,64.4,64.4,100,29.91,4.0,West,9.2,-,N/A,,Overcast,260,2012-12-10 12:50:00
8:50 AM,66.2,66.2,100,29.92,7.0,SW,4.6,-,N/A,,Mostly Cloudy,230,2012-12-10 13:50:00
9:50 AM,69.8,64.4,83,29.91,7.0,SW,6.9,-,N/A,,Mostly Cloudy,230,2012-12-10 14:50:00
10:50 AM,69.8,64.4,83,29.91,7.0,West,13.8,-,N/A,,Mostly Cloudy,260,2012-12-10 15:50:00
11:48 AM,68.0,62.6,83,29.88,6.0,SSW,16.1,-,N/A,,Mostly Cloudy,200,2012-12-10 16:48:00
12:50 PM,69.8,62.6,78,29.84,6.0,South,16.1,-,N/A,,Mostly Cloudy,180,2012-12-10 17:50:00
1:45 PM,66.2,60.8,83,29.83,6.0,SSW,11.5,-,N/A,,Scattered Clouds,210,2012-12-10 18:45:00
2:45 PM,64.4,60.8,88,29.82,6.0,SSW,17.3,-,N/A,,Scattered Clouds,200,2012-12-10 19:45:00
3:45 PM,66.2,62.6,88,29.82,7.0,SSW,11.5,-,N/A,,Scattered Clouds,200,2012-12-10 20:45:00
4:45 PM,62.6,60.8,94,29.81,7.0,SSW,13.8,-,N/A,,Clear,200,2012-12-10 21:45:00
5:45 PM,62.6,60.8,94,29.81,7.0,SSW,11.5,-,N/A,,Clear,200,2012-12-10 22:45:00
6:47 PM,62.6,60.8,94,29.82,7.0,North,-9999.0,-,N/A,,Clear,0,2012-12-10 23:47:00
7:45 PM,62.6,59.0,88,29.80,7.0,SSW,9.2,-,N/A,,Clear,200,2012-12-11 00:45:00
8:50 PM,62.6,59.0,88,29.80,10.0,SSW,11.5,-,N/A,,Clear,200,2012-12-11 01:50:00
10:55 PM,66.2,64.4,94,29.81,10.0,SSW,11.5,16.1,N/A,,Clear,200,2012-12-11 03:55:00
11:15 PM,66.2,64.4,94,29.79,10.0,SSW,9.2,-,N/A,,Clear,210,2012-12-11 04:15:00
11:35 PM,66.2,64.4,94,29.80,10.0,SSW,10.4,-,N/A,,Clear,200,2012-12-11 04:35:00
11:55 PM,64.4,62.6,94,29.80,10.0,South,11.5,-,N/A,,Clear,180,2012-12-11 04:55:00